Regional Weather Roundup
Issued by NWS

Home | Current Version | Previous Version | Graphics & Text | Print | Product List | Glossary Off
Versions: 1 2 3 4 5 6 7 8 9 10 11 12 13 14 15 16 17 18 19 20 21 22 23 24 25 26 27 28 29 30 31 32 33 34 35 36 37 38 39 40 41 42 43 44 45 46 47 48 49 50

000
ASUS43 KMKX 211200
RWRWI

WISCONSIN REGIONAL WEATHER ROUNDUP
NATIONAL WEATHER SERVICE MILWAUKEE/SULLIVAN WI
600 AM CST TUE FEB 21 2017

NOTE: "FAIR" INDICATES FEW OR NO CLOUDS BELOW 12,000 FEET WITH NO
SIGNIFICANT WEATHER AND/OR OBSTRUCTIONS TO VISIBILITY.

WIZ001-002-006>008-014>016-023>028-211300-
NORTHWEST WISCONSIN

CITY           SKY/WX    TMP DP  RH WIND       PRES   REMARKS
SUPERIOR ARPT  CLOUDY    35  33  93 SW9       29.83R WCI  27
ASHLAND        PTCLDY    36  34  92 SW9       29.82R WCI  29
6HR MIN TEMP:  36; 6HR MAX TEMP:  50;

HAYWARD        CLOUDY    37  33  85 SW9       29.85S WCI  30
6HR MIN TEMP:  37; 6HR MAX TEMP:  50;

SIREN          MOCLDY    35  34  96 SW3       29.87S
CUMBERLAND     CLOUDY    34  32  93 SW7       29.87R WCI  28
RICE LAKE      CLOUDY    36  34  95 SW6       29.90R WCI  31
CHETEK         CLOUDY    36  35  96 CALM      29.89R
LADYSMITH      CLOUDY    37  36  94 W3        29.88S
EAU CLAIRE     CLOUDY    38  36  92 W8        29.89S WCI  32
6HR MIN TEMP:  38; 6HR MAX TEMP:  48;

MENOMONIE      CLOUDY    37  36  94 S6        29.90S WCI  32
6HR MIN TEMP:  37; 6HR MAX TEMP:  45;

NEW RICHMOND   PTCLDY    35  35  99 CALM      29.89S FOG
OSCEOLA        NOT AVBL
$$

WIZ003>005-009-010-017-018-211300-
NORTH CENTRAL WISCONSIN

CITY           SKY/WX    TMP DP  RH WIND       PRES   REMARKS
MANITOWISH WTR MOCLDY    37  37 100 W7        29.80R WCI  31
ARBOR VITAE    MOCLDY    39  37  93 W8        29.81R WCI  34
WOODRUFF       MOCLDY    39  37  93 W8        29.81R WCI  34
RHINELANDER    PTCLDY    39  38  96 W10       29.82R WCI  32
6HR MIN TEMP:  39; 6HR MAX TEMP:  50; 6HR PCP:  0.05;

EAGLE RIVER    PTCLDY    40  39  98 W9        29.79R WCI  34
LAND O LAKES   PTCLDY    40  39  97 W6        29.80R
6HR MIN TEMP:  40; 6HR MAX TEMP:  49; 6HR PCP:  0.01;

PHILLIPS       MOCLDY    36  36  99 W3        29.84R
6HR MIN TEMP:  36; 6HR MAX TEMP:  50;

TOMAHAWK       MOCLDY    38  37  92 W5        29.83R WCI  35
MEDFORD        CLOUDY    38  37  96 W8        29.86R WCI  32
MERRILL        NOT AVBL
$$

WIZ029-030-035-036-043>047-211300-
CENTRAL WISCONSIN

CITY           SKY/WX    TMP DP  RH WIND       PRES   REMARKS
WAUSAU         CLOUDY    41  39  93 W12       29.85R
6HR MIN TEMP:  41; 6HR MAX TEMP:  51; 6HR PCP: TRACE;

MOSINEE        CLOUDY    41  41 100 W14       29.87R
MARSHFIELD     CLOUDY    40  37  89 W9        29.87R WCI  34
6HR MIN TEMP:  40; 6HR MAX TEMP:  52; 6HR PCP: TRACE;

STEVENS POINT  CLOUDY    42  40  93 W7G16     29.87R
WAUPACA        CLEAR     47  43  84 W9        29.86R
WAUTOMA        CLOUDY    45  42  89 W6        29.89R
6HR MIN TEMP:  45; 6HR MAX TEMP:  54;

WISC RAPIDS    CLOUDY    44  41  89 W9        29.89R
6HR MIN TEMP:  44; 6HR MAX TEMP:  54; 6HR PCP: TRACE;

CAMP DOUGLAS   NOT AVBL
$$

WIZ011>013-019>022-031-037>040-048>050-211300-
NORTHEAST WISCONSIN

CITY           SKY/WX    TMP DP  RH WIND       PRES   REMARKS
ANTIGO         CLOUDY    41  41 100 W9        29.82R
SHAWANO        PTCLDY    48  44  88 W7        29.84R
6HR MIN TEMP:  48; 6HR MAX TEMP:  54;

OCONTO         PTCLDY    49  46  90 W13       29.80R
STURGEON BAY   PTCLDY    50  48  93 MISG      29.80R
6HR MIN TEMP:  42; 6HR MAX TEMP:  52;

GREEN BAY      CLOUDY    50  47  89 W12       29.82S
6HR MIN TEMP:  48; 6HR MAX TEMP:  54; 6HR PCP:  0.02;

MANITOWOC      CLOUDY    52  48  87 MISG      29.84R
APPLETON       CLOUDY    46  45  93 W15G23    29.83R
CLINTONVILLE   CLEAR     43  41  93 W7        29.84R
OSHKOSH        CLOUDY    49  44  83 W7        29.84F
6HR MIN TEMP:  49; 6HR MAX TEMP:  54; 6HR PCP:  0.01;

$$

WIZ032>034-041-042-053>061-211300-
SOUTHWEST WISCONSIN

CITY           SKY/WX    TMP DP  RH WIND       PRES   REMARKS
LA CROSSE      CLOUDY    39  36  89 W5        29.93R
6HR MIN TEMP:  38; 6HR MAX TEMP:  53;

SPARTA         CLOUDY    41  40  96 W5        29.93R
6HR MIN TEMP:  41; 6HR MAX TEMP:  56; 6HR PCP:  0.01;

VIROQUA        CLEAR     37  37 100 W7        29.91R WCI  31
6HR MIN TEMP:  37; 6HR MAX TEMP:  55;

BOSCOBEL       CLEAR     40  39  97 S3        29.93S FOG
6HR MIN TEMP:  40; 6HR MAX TEMP:  57; 6HR PCP:  0.01;

PRAIRIE DU CHI CLEAR     37  36  95 W3        29.93F FOG
PLATTEVILLE    PTCLDY    40  40 100 W6        29.93F
$$

WIZ056-057-062-063-064-067-068-211300-
SOUTH CENTRAL WISCONSIN

CITY           SKY/WX    TMP DP  RH WIND       PRES   REMARKS
REEDSBURG      MOCLDY    41  41 100 W3        29.90R FOG
6HR MIN TEMP:  41; 6HR MAX TEMP:  56;

BARABOO/DELLS  CLEAR     43  41  93 W3        29.89F
LONE ROCK      NOT AVBL
MINERAL POINT  CLOUDY    43  43 100 W7        29.92S
MADISON        CLOUDY    47  44  90 CALM      29.89R
6HR MIN TEMP:  47; 6HR MAX TEMP:  55; 6HR PCP:  0.02;

MIDDLETON        N/A     46  46 100 W7        29.90S
6HR MIN TEMP:  46; 6HR MAX TEMP:  58; 6HR PCP:  0.01;

WATERTOWN      CLOUDY    52  52 100 W8        29.88R
MONROE         CLOUDY    46  45  93 W12       29.91R
JANESVILLE     MOCLDY    54  52  94 W7        29.90R FOG
$$

WIZ051-052-058>065-066-070>072-211300-
SOUTHEAST WISCONSIN

CITY           SKY/WX    TMP DP  RH WIND       PRES   REMARKS
MILWAUKEE      CLOUDY    55  52  89 SW8       29.87S
6HR MIN TEMP:  54; 6HR MAX TEMP:  58; 6HR PCP:  0.07;

WAUKESHA       CLOUDY    54  54 100 W13       29.88S
MILWAUKEE/TIMM CLOUDY    54  50  87 SW6       29.87R
RACINE         CLOUDY    54  51  90 W5        29.89S
6HR MIN TEMP:  46; 6HR MAX TEMP:  54; 6HR PCP:  0.05;

KENOSHA        CLOUDY    54  51  90 SW10      29.88S FOG
6HR MIN TEMP:  53; 6HR MAX TEMP:  59; 6HR PCP:  0.03;

FOND DU LAC    CLOUDY    49  43  80 W5        29.86S
6HR MIN TEMP:  49; 6HR MAX TEMP:  55; 6HR PCP:  0.05;

SHEBOYGAN      CLOUDY    51  46  83 NW16G31   29.86R
6HR MIN TEMP:  44; 6HR MAX TEMP:  54; 6HR PCP:  0.02;

WEST BEND      CLOUDY    54  52  94 W13G18    29.85S
JUNEAU         MOCLDY    49  46  92 W6        29.90R
$$

LSZ147-162-211300-
LAKE SUPERIOR

STATION/POSITION TIME  TEMP    WIND        PRES    WAVE
                       AIR SEA DIR/SP/G            HT/PER
                 (UTC) (F)     (DEG/KT/KT) (MB)    (FT/S)
DEVILS ISLAND    1100   36     240/ 22/ 29 1008.4R
PORT WING        1140   37     220/  9/ 12 1010.2R
SAXON HARBOR     1140   39     200/  9/ 13 1009.1R
$$

LMZ867-665-643>646-211300-
LAKE MICHIGAN

STATION/POSITION TIME  TEMP    WIND        PRES    WAVE
                       AIR SEA DIR/SP/G            HT/PER
                 (UTC) (F)     (DEG/KT/KT) (MB)    (FT/S)
CHAMBERS ISLAND  1140   49     200/  7/ 13 1008.1R
NORTHPORT PIER   1140   52     250/  5/ 13 1008.5R
SISTER BAY       1005   45     180/ 17/ 20   N/A
KEWAUNEE LAKESHO 1130   43     230/  4/  9 1009.4R
SHEBOYGAN LAKESH 1100   42     170/ 10/ 11 1010.3R
PORT WASHINGTON  1140   44     230/  4/  8 1011.9R
MILWAUKEE LAKESH 1130   54     230/  9/ 11   N/A
KENOSHA   LAKESH 1100   55     250/  6/ 10 1012.2
$$

TC  - TEMPERATURE IN CELSIUS
VSB - VISIBILITY IN STATUTE MILES
WCI - WIND CHILL INDEX
HX  - HEAT INDEX





USA.gov is the U.S. government's official web portal to all federal, state and local government web resources and services.